SCP
0 0 0 0 0 0 0 0 0 0 0 0 0 0 0 0 0 0 0 0 0 0 0 0 0 0 0 0 0 0 0 0 0 0 0 0 0 0 0 0 0 0 0 0
0 0 0 0 0 0 0 0 0 0 0 0 0 0 0 0 0 0 0 0 0 0 0 0 0 0 0 0 0 0 0 0 0 0 0 0 0 0 0 0 0 0 0 0
0 0 0 0 0 0 0 0 0 0 0 0 0 0 0 0 0 0 0 0 0 0 0 0 0 0 0 0 0 0 0 0 0 0 0 0 0 0 0 0 0 0 0 0
0 0 0 0 0 0 0 0 0 0 0 0 0 0 0 0 0 0 0 0 0 0 0 0 0 0 0 0 0 0 0 0 0 0 0 0 0 0 0 0 0 0 0 0
0 0 0 0 0 0 0 0 0 0 0 0 0 0 0 0 0 0 0 0 0 0 0 0 0 0 0 0 0 0 0 0 0 0 0 0 0 0 0 0 0 0 0 0
0 0 0 0 0 0 0 0 0 0 0 0 0 0 0 0 0 0 0 0 0 0 0 0 0 0 0 0 0 0 0 0 0 0 0 0 0 0 0 0 0 0 0 0
0 0 0 0 0 0 0 0 0 0 0 0 0 0 0 0 0 0 0 0 0 0 0 0 0 0 0 0 0 0 0 0 0 0 0 0 0 0 0 0 0 0 0 0
0 0 0 0 0 0 0 0 0 0 0 0 0 0 0 0 0 0 0 0 0 0 0 0 0 0 0 0 0 0 0 0 0 0 0 0 0 0 0 0 0 0 0 0
0 0 0 0 0 0 0 0 0 0 0 0 0 0 0 0 0 0 0 0 0 0 0 0 0 0 0 0 0 0 0 0 0 0 0 0 0 0 0 0 0 0 0 0
0 0 0 0 0 0 0 0 0 0 0 0 0 0 0 0 0 0 0 0 0 0 0 0 0 0 0 0 0 0 0 0 0 0 0 0 0 0 0 0 0 0 0 0
0 0 0 0 0 0 0 0 0 0 0 0 0 0 0 0 0 0 0 0 0 0 0 0 0 0 0 0 0 0 0 0 0 0 0 0 0 0 0 0 0 0 0 0
0 0 0 0 0 0 0 0 0 0 0 0 0 0 0 0 0 0 0 0 0 0 0 0 0 0 0 0 0 0 0 0 0 0 0 0 0 0 0 0 0 0 0 0
0 0 0 0 0 0 0 0 0 0 0 0 0 0 0 0 0 0 0 0 0 0 0 0 0 0 0 0 0 0 0 0 0 0 0 0 0 0 0 0 0 0 0 0
0 0 0 0 0 0 0 0 0 0 0 0 0 0 0 0 0 0 0 0 0 0 0 0 0 0 0 0 0 0 0 0 0 0 0 0 0 0 0 0 0 0 0 0
0 0 0 0 0 0 0 0 0 0 0 0 0 0 0 0 0 0 0 0 0 0 0 0 0 0 0 0 0 0 0 0 0 0 0 0 0 0 0 0 0 0 0 0
0 0 0 0 0 0 0 0 0 0 0 0 0 0 0 0 0 0 0 0 0 0 0 0 0 0 0 0 0 0 0 0 0 0 0 0 0 0 0 0 0 0 0 0
0 0 0 0 0 0 0 0 0 0 0 0 0 0 0 0 0 0 0 0 0 0 0 0 0 0 0 0 0 0 0 0 0 0 0 0 0 0 0 0 0 0 0 0
0 0 0 0 0 0 0 0 0 0 0 0 0 0 0 0 0 0 0 0 0 0 0 0 0 0 0 0 0 0 0 0 0 0 0 0 0 0 0 0 0 0 0 0
0 0 0 0 0 0 0 0 0 0 0 0 0 0 0 0 0 0 0 0 0 0 0 0 0 0 0 0 0 0 0 0 0 0 0 0 0 0 0 0 0 0 0 0
0 0 0 0 0 0 0 0 0 0 0 0 0 0 0 0 0 0 0 0 0 0 0 0 0 0 0 0 0 0 0 0 0 0 0 0 0 0 0 0 0 0 0 0
0 0 0 0 0 0 0 0 0 0 0 0 0 0 0 0 0 0 0 0 0 0 0 0 0 0 0 0 0 0 0 0 0 0 0 0 0 0 0 0 0 0 0 0
0 0 0 0 0 0 0 0 0 0 0 0 0 0 0 0 0 0 0 0 0 0 0 0 0 0 0 0 0 0 0 0 0 0 0 0 -0 -0 -0 0 0 0 -0 -0
0 0 0 0 0 0 0 0 0 0 0 0 0 0 0 0 0 0 0 0 0 0 0 0 0 0 0 0 0 0 0 0 0 0 0 0 0 -0 0 -0 0 -0 -0 -0
0 0 0 0 0 0 0 0 0 0 0 0 0 0 0 0 0 0 0 0 0 0 0 0 0 0 0 0 0 0 0 0 0 0 0 0 0 0 0 0 0 -0 -0 0
0 0 0 0 0 0 0 0 0 0 0 0 0 0 0 0 0 0 0 0 0 0 0 0 0 0 0 0 0 0 0 0 0 0 0 0 0 0 0 0 0 0 0 0
0 0 0 0 0 0 0 0 0 0 0 0 0 0 0 0 0 0 0 0 0 0 0 0 0 0 0 0 0 0 0 0 0 0 0 0 0 0 0 0 0 0 0 0
Wind_Speed_500mb
27 8 17 29 20 3 7 5 7 10 6 3 9 5 7 36 42 40 43 46 44 41 38 32 27 20 19 18 20 16 20 15 10 7 4 9 15 20 23 23 18 11 7 8
9 19 17 7 11 8 5 5 2 8 5 2 9 10 23 31 32 39 38 42 44 45 37 38 36 28 25 22 18 17 14 15 9 3 4 11 14 18 19 18 14 7 6 6
17 1 17 11 8 12 12 9 4 4 6 9 6 8 16 20 35 39 45 42 45 42 35 36 34 34 26 25 22 20 16 12 8 5 6 10 15 21 23 22 15 6 4 7
10 9 16 10 16 13 16 13 9 6 3 4 1 5 9 22 23 35 40 44 42 40 40 41 39 36 29 24 20 20 17 13 9 8 9 11 12 13 16 16 12 5 2 6
8 10 13 16 19 20 5 2 14 10 6 9 4 6 1 21 15 25 31 35 37 40 45 43 42 37 30 27 25 20 18 14 12 12 12 12 11 12 14 12 12 6 2 6
8 4 1 4 7 6 11 11 13 1 6 3 11 9 1 7 8 12 24 31 36 39 35 38 34 33 31 26 24 21 20 19 18 17 17 16 16 15 11 12 12 9 5 5
7 7 5 3 12 8 7 10 4 4 2 8 8 6 5 14 14 16 19 30 33 34 37 32 28 28 26 25 23 21 19 19 20 20 19 19 17 16 17 12 11 11 10 10
10 5 16 11 2 13 12 5 6 10 9 7 4 10 4 13 20 26 29 29 32 35 34 33 29 28 26 24 22 20 18 17 17 18 20 21 19 18 15 15 15 9 9 10
12 6 6 7 8 3 9 8 1 8 3 6 9 9 7 14 13 25 28 31 34 35 35 35 34 33 30 25 24 21 16 16 15 16 16 17 19 17 18 17 19 19 17 18
6 10 3 2 2 0 0 2 4 5 5 5 2 9 6 15 15 16 21 27 30 32 35 36 37 35 33 30 27 21 20 20 18 14 13 12 12 15 18 17 21 23 22 20
7 5 3 5 11 11 5 5 2 3 4 6 5 3 10 17 15 16 21 25 28 30 32 33 33 34 34 33 34 33 30 26 22 19 15 15 17 16 15 12 10 12 17 17
8 5 7 4 5 4 6 4 9 7 8 2 4 4 11 14 21 24 24 24 26 27 28 29 32 34 36 37 37 40 38 36 35 30 25 21 19 18 19 22 25 23 20 17
9 1 7 4 2 4 5 7 4 9 4 8 8 4 12 19 18 24 26 22 22 24 25 27 30 33 34 34 34 35 38 38 38 38 37 34 30 28 27 26 25 25 27 27
4 4 3 4 6 2 8 10 10 6 5 7 4 13 18 17 17 23 23 20 19 22 24 25 27 29 30 30 31 33 33 33 35 36 37 38 40 41 40 36 33 32 30 30
6 5 6 8 10 9 9 5 11 14 9 4 6 9 23 22 20 24 20 18 18 18 20 23 24 26 29 31 33 35 37 39 40 40 40 42 40 39 37 37 38 38 37 36
5 5 4 4 7 6 3 4 8 6 6 14 21 11 18 41 35 24 19 18 17 14 15 17 19 23 28 31 34 35 39 41 42 43 45 44 44 46 47 46 46 44 42 41
4 9 5 7 4 6 4 12 9 7 7 6 9 11 31 21 26 24 20 16 15 11 11 14 17 22 27 29 31 34 37 38 42 44 45 46 46 46 48 49 51 52 52 50
6 6 2 5 2 5 3 3 4 13 7 10 17 16 20 28 25 19 14 14 12 9 9 11 13 16 21 24 25 28 32 36 41 45 49 53 55 56 55 55 54 54 54 54
12 3 4 7 5 2 4 8 11 10 10 12 20 25 33 33 28 14 15 15 10 7 7 8 9 11 14 18 23 28 33 39 44 50 54 58 61 61 61 61 62 60 61 59
6 6 5 3 8 13 3 8 6 3 5 25 29 32 36 34 7 8 24 13 9 7 6 6 5 5 9 14 21 27 33 38 45 50 54 56 57 57 59 60 61 62 62 63
4 4 7 4 4 6 7 16 10 10 9 30 37 38 41 12 5 31 26 17 9 6 4 2 1 4 9 16 23 31 39 47 55 60 62 59 57 57 56 56 57 59 61 63
10 10 6 5 6 13 31 10 12 10 37 40 37 36 40 22 28 26 19 12 9 7 5 3 5 10 18 26 33 40 46 52 58 62 63 62 61 61 61 61 60 60 61 61
3 9 8 11 8 2 38 8 18 34 46 37 40 35 35 30 26 20 14 9 7 6 7 9 13 17 23 29 35 41 47 54 60 61 61 61 60 60 62 65 66 66 63 65
6 6 3 7 5 9 27 15 30 28 33 33 31 33 29 27 22 18 13 10 9 10 14 16 20 24 27 32 39 45 53 60 62 62 61 62 64 65 65 66 67 68 68 70
4 15 10 6 4 8 21 30 34 32 32 34 29 29 28 24 21 15 12 9 11 15 19 22 26 29 32 37 46 53 59 62 63 63 63 64 66 68 71 69 70 72 72 67
24 14 11 11 29 19 20 52 45 44 41 37 33 32 26 20 17 14 13 12 14 19 23 27 31 34 37 42 49 55 58 60 62 63 63 65 68 70 71 74 78 72 75 74
Wind_Direction_500mb
194 195 203 201 213 72 13 155 290 84 94 322 229 251 351 72 60 53 48 38 31 26 20 16 36 81 130 145 179 192 186 188 186 202 268 332 341 338 341 347 355 14 61 77
113 222 225 246 217 181 247 142 160 66 72 346 15 321 89 76 67 61 51 39 29 25 32 37 50 71 98 124 135 150 155 148 160 141 1 337 342 347 346 356 6 31 59 49
158 69 200 168 150 189 224 188 136 46 323 215 295 125 113 94 85 64 49 40 35 30 33 49 61 74 89 100 117 126 136 130 119 79 16 8 12 8 357 352 4 35 52 40
241 132 161 180 200 206 227 206 211 263 48 250 261 262 193 137 87 59 43 36 32 33 44 54 63 68 72 85 99 107 108 95 71 39 26 25 21 356 352 351 355 27 30 20
171 150 157 190 201 187 159 174 177 198 214 298 191 84 281 160 70 51 43 37 33 41 51 54 57 60 68 75 73 75 76 65 47 32 23 14 7 360 8 12 14 27 29 3
91 16 74 160 57 131 160 103 72 133 211 349 212 145 246 36 35 46 47 44 37 39 54 68 63 65 66 73 73 65 56 46 36 30 18 7 5 8 5 19 22 18 348 328
124 116 82 231 91 81 233 165 71 21 20 223 2 98 79 82 69 65 58 51 46 45 46 51 55 58 62 61 66 66 57 46 33 27 19 12 11 10 6 2 359 9 8 343
155 198 180 182 223 177 198 232 169 182 183 192 28 217 131 95 87 80 73 63 55 50 48 46 49 52 54 53 51 49 41 35 27 23 21 11 12 9 6 351 332 331 334 330
163 114 31 9 15 96 174 211 350 111 107 77 173 90 122 128 94 76 67 61 55 52 48 44 44 46 46 46 42 34 28 22 16 11 9 13 6 6 1 348 342 327 306 302
55 113 317 105 322 76 116 93 138 328 127 200 170 138 119 178 110 81 64 59 59 56 52 49 43 43 43 41 37 32 25 18 13 9 8 356 354 358 0 359 353 344 334 323
2 65 97 152 209 169 179 167 216 167 130 184 160 178 352 94 96 99 84 67 59 57 54 52 51 49 48 46 41 37 35 31 26 15 3 353 344 338 329 320 305 313 329 329
55 45 136 172 58 53 333 250 174 138 224 210 123 188 78 91 99 108 95 85 74 64 55 53 52 51 50 49 45 41 40 39 36 30 19 14 354 344 337 328 322 313 303 301
153 85 118 40 360 37 222 197 313 94 61 198 143 208 123 127 111 106 102 88 75 67 59 48 42 41 42 41 41 41 38 35 36 33 28 26 20 11 2 350 339 329 322 309
146 149 40 97 81 299 182 192 191 185 134 183 224 148 175 159 140 126 109 95 75 58 48 45 41 35 33 35 35 33 35 31 31 29 26 25 22 19 14 7 359 351 341 327
74 117 77 69 33 30 35 57 182 213 246 290 55 87 167 162 143 134 124 106 86 64 48 40 37 38 38 39 40 37 34 31 29 28 25 25 22 16 11 7 5 4 358 352
346 109 99 70 112 63 101 38 36 39 30 109 113 86 109 114 127 134 125 112 94 71 56 47 40 41 40 42 44 40 40 37 33 32 29 24 20 16 12 8 4 0 358 353
113 139 158 123 134 133 261 197 167 105 55 4 183 137 133 141 141 134 132 130 110 92 70 55 47 41 41 42 41 38 34 28 23 19 15 11 10 7 4 359 356 355 355 352
123 107 84 126 139 212 172 40 312 106 109 101 105 120 132 118 124 139 138 128 127 112 90 70 63 53 44 39 34 29 21 14 8 3 359 355 352 351 349 347 345 343 341 340
17 100 101 140 185 163 183 199 165 184 186 165 140 127 121 128 128 138 158 164 150 126 114 94 76 55 42 30 20 12 4 0 356 353 351 348 345 343 342 341 341 340 337 336
22 31 108 137 153 206 158 145 139 44 283 173 152 147 149 157 177 162 180 170 157 151 131 102 79 48 22 10 1 355 351 350 348 348 346 343 341 339 338 338 337 337 335 334
51 22 142 185 216 297 141 147 140 110 214 152 156 159 160 171 145 158 171 174 185 182 161 144 34 339 337 341 344 345 345 346 345 342 340 340 339 337 337 335 334 332 330 329
164 139 189 66 74 274 145 113 165 155 139 153 160 159 168 168 151 156 166 180 180 186 201 239 294 314 325 335 338 338 336 336 335 334 335 335 335 336 335 334 333 332 331 329
272 179 182 172 211 128 165 138 165 154 156 161 163 165 174 165 167 168 171 183 202 235 267 280 290 300 313 321 322 322 325 327 329 331 333 333 333 333 333 333 332 331 331 330
256 171 169 53 285 192 184 176 169 161 165 167 173 170 172 168 173 175 185 203 231 256 272 282 283 290 300 309 312 317 323 326 328 330 331 332 332 332 332 331 331 330 331 329
160 145 174 271 164 165 215 205 182 170 176 175 175 174 172 175 179 190 200 230 265 281 287 289 291 297 305 310 315 321 322 324 327 329 330 331 330 329 329 328 328 328 327 327
187 182 171 212 200 176 203 202 191 190 188 185 182 176 182 189 198 207 228 257 279 290 295 294 297 302 307 310 315 318 320 324 326 327 328 329 328 328 327 325 323 323 323 323
Wind_Speed_850mb
27 8 17 29 20 3 7 5 7 10 6 3 9 5 7 36 42 40 43 46 44 41 38 32 27 20 19 18 20 16 20 15 10 7 4 9 15 20 23 23 18 11 7 8
9 19 17 7 11 8 5 5 2 8 5 2 9 10 23 31 32 39 38 42 44 45 37 38 36 28 25 22 18 17 14 15 9 3 4 11 14 18 19 18 14 7 6 6
17 1 17 11 8 12 12 9 4 4 6 9 6 8 16 20 35 39 45 42 45 42 35 36 34 34 26 25 22 20 16 12 8 5 6 10 15 21 23 22 15 6 4 7
10 9 16 10 16 13 16 13 9 6 3 4 1 5 9 22 23 35 40 44 42 40 40 41 39 36 29 24 20 20 17 13 9 8 9 11 12 13 16 16 12 5 2 6
8 10 13 16 19 20 5 2 14 10 6 9 4 6 1 21 15 25 31 35 37 40 45 43 42 37 30 27 25 20 18 14 12 12 12 12 11 12 14 12 12 6 2 6
8 4 1 4 7 6 11 11 13 1 6 3 11 9 1 7 8 12 24 31 36 39 35 38 34 33 31 26 24 21 20 19 18 17 17 16 16 15 11 12 12 9 5 5
7 7 5 3 12 8 7 10 4 4 2 8 8 6 5 14 14 16 19 30 33 34 37 32 28 28 26 25 23 21 19 19 20 20 19 19 17 16 17 12 11 11 10 10
10 5 16 11 2 13 12 5 6 10 9 7 4 10 4 13 20 26 29 29 32 35 34 33 29 28 26 24 22 20 18 17 17 18 20 21 19 18 15 15 15 9 9 10
12 6 6 7 8 3 9 8 1 8 3 6 9 9 7 14 13 25 28 31 34 35 35 35 34 33 30 25 24 21 16 16 15 16 16 17 19 17 18 17 19 19 17 18
6 10 3 2 2 0 0 2 4 5 5 5 2 9 6 15 15 16 21 27 30 32 35 36 37 35 33 30 27 21 20 20 18 14 13 12 12 15 18 17 21 23 22 20
7 5 3 5 11 11 5 5 2 3 4 6 5 3 10 17 15 16 21 25 28 30 32 33 33 34 34 33 34 33 30 26 22 19 15 15 17 16 15 12 10 12 17 17
8 5 7 4 5 4 6 4 9 7 8 2 4 4 11 14 21 24 24 24 26 27 28 29 32 34 36 37 37 40 38 36 35 30 25 21 19 18 19 22 25 23 20 17
9 1 7 4 2 4 5 7 4 9 4 8 8 4 12 19 18 24 26 22 22 24 25 27 30 33 34 34 34 35 38 38 38 38 37 34 30 28 27 26 25 25 27 27
4 4 3 4 6 2 8 10 10 6 5 7 4 13 18 17 17 23 23 20 19 22 24 25 27 29 30 30 31 33 33 33 35 36 37 38 40 41 40 36 33 32 30 30
6 5 6 8 10 9 9 5 11 14 9 4 6 9 23 22 20 24 20 18 18 18 20 23 24 26 29 31 33 35 37 39 40 40 40 42 40 39 37 37 38 38 37 36
5 5 4 4 7 6 3 4 8 6 6 14 21 11 18 41 35 24 19 18 17 14 15 17 19 23 28 31 34 35 39 41 42 43 45 44 44 46 47 46 46 44 42 41
4 9 5 7 4 6 4 12 9 7 7 6 9 11 31 21 26 24 20 16 15 11 11 14 17 22 27 29 31 34 37 38 42 44 45 46 46 46 48 49 51 52 52 50
6 6 2 5 2 5 3 3 4 13 7 10 17 16 20 28 25 19 14 14 12 9 9 11 13 16 21 24 25 28 32 36 41 45 49 53 55 56 55 55 54 54 54 54
12 3 4 7 5 2 4 8 11 10 10 12 20 25 33 33 28 14 15 15 10 7 7 8 9 11 14 18 23 28 33 39 44 50 54 58 61 61 61 61 62 60 61 59
6 6 5 3 8 13 3 8 6 3 5 25 29 32 36 34 7 8 24 13 9 7 6 6 5 5 9 14 21 27 33 38 45 50 54 56 57 57 59 60 61 62 62 63
4 4 7 4 4 6 7 16 10 10 9 30 37 38 41 12 5 31 26 17 9 6 4 2 1 4 9 16 23 31 39 47 55 60 62 59 57 57 56 56 57 59 61 63
10 10 6 5 6 13 31 10 12 10 37 40 37 36 40 22 28 26 19 12 9 7 5 3 5 10 18 26 33 40 46 52 58 62 63 62 61 61 61 61 60 60 61 61
3 9 8 11 8 2 38 8 18 34 46 37 40 35 35 30 26 20 14 9 7 6 7 9 13 17 23 29 35 41 47 54 60 61 61 61 60 60 62 65 66 66 63 65
6 6 3 7 5 9 27 15 30 28 33 33 31 33 29 27 22 18 13 10 9 10 14 16 20 24 27 32 39 45 53 60 62 62 61 62 64 65 65 66 67 68 68 70
4 15 10 6 4 8 21 30 34 32 32 34 29 29 28 24 21 15 12 9 11 15 19 22 26 29 32 37 46 53 59 62 63 63 63 64 66 68 71 69 70 72 72 67
24 14 11 11 29 19 20 52 45 44 41 37 33 32 26 20 17 14 13 12 14 19 23 27 31 34 37 42 49 55 58 60 62 63 63 65 68 70 71 74 78 72 75 74
Wind_Direction_850mb
194 195 203 201 213 72 13 155 290 84 94 322 229 251 351 72 60 53 48 38 31 26 20 16 36 81 130 145 179 192 186 188 186 202 268 332 341 338 341 347 355 14 61 77
113 222 225 246 217 181 247 142 160 66 72 346 15 321 89 76 67 61 51 39 29 25 32 37 50 71 98 124 135 150 155 148 160 141 1 337 342 347 346 356 6 31 59 49
158 69 200 168 150 189 224 188 136 46 323 215 295 125 113 94 85 64 49 40 35 30 33 49 61 74 89 100 117 126 136 130 119 79 16 8 12 8 357 352 4 35 52 40
241 132 161 180 200 206 227 206 211 263 48 250 261 262 193 137 87 59 43 36 32 33 44 54 63 68 72 85 99 107 108 95 71 39 26 25 21 356 352 351 355 27 30 20
171 150 157 190 201 187 159 174 177 198 214 298 191 84 281 160 70 51 43 37 33 41 51 54 57 60 68 75 73 75 76 65 47 32 23 14 7 360 8 12 14 27 29 3
91 16 74 160 57 131 160 103 72 133 211 349 212 145 246 36 35 46 47 44 37 39 54 68 63 65 66 73 73 65 56 46 36 30 18 7 5 8 5 19 22 18 348 328
124 116 82 231 91 81 233 165 71 21 20 223 2 98 79 82 69 65 58 51 46 45 46 51 55 58 62 61 66 66 57 46 33 27 19 12 11 10 6 2 359 9 8 343
155 198 180 182 223 177 198 232 169 182 183 192 28 217 131 95 87 80 73 63 55 50 48 46 49 52 54 53 51 49 41 35 27 23 21 11 12 9 6 351 332 331 334 330
163 114 31 9 15 96 174 211 350 111 107 77 173 90 122 128 94 76 67 61 55 52 48 44 44 46 46 46 42 34 28 22 16 11 9 13 6 6 1 348 342 327 306 302
55 113 317 105 322 76 116 93 138 328 127 200 170 138 119 178 110 81 64 59 59 56 52 49 43 43 43 41 37 32 25 18 13 9 8 356 354 358 0 359 353 344 334 323
2 65 97 152 209 169 179 167 216 167 130 184 160 178 352 94 96 99 84 67 59 57 54 52 51 49 48 46 41 37 35 31 26 15 3 353 344 338 329 320 305 313 329 329
55 45 136 172 58 53 333 250 174 138 224 210 123 188 78 91 99 108 95 85 74 64 55 53 52 51 50 49 45 41 40 39 36 30 19 14 354 344 337 328 322 313 303 301
153 85 118 40 360 37 222 197 313 94 61 198 143 208 123 127 111 106 102 88 75 67 59 48 42 41 42 41 41 41 38 35 36 33 28 26 20 11 2 350 339 329 322 309
146 149 40 97 81 299 182 192 191 185 134 183 224 148 175 159 140 126 109 95 75 58 48 45 41 35 33 35 35 33 35 31 31 29 26 25 22 19 14 7 359 351 341 327
74 117 77 69 33 30 35 57 182 213 246 290 55 87 167 162 143 134 124 106 86 64 48 40 37 38 38 39 40 37 34 31 29 28 25 25 22 16 11 7 5 4 358 352
346 109 99 70 112 63 101 38 36 39 30 109 113 86 109 114 127 134 125 112 94 71 56 47 40 41 40 42 44 40 40 37 33 32 29 24 20 16 12 8 4 0 358 353
113 139 158 123 134 133 261 197 167 105 55 4 183 137 133 141 141 134 132 130 110 92 70 55 47 41 41 42 41 38 34 28 23 19 15 11 10 7 4 359 356 355 355 352
123 107 84 126 139 212 172 40 312 106 109 101 105 120 132 118 124 139 138 128 127 112 90 70 63 53 44 39 34 29 21 14 8 3 359 355 352 351 349 347 345 343 341 340
17 100 101 140 185 163 183 199 165 184 186 165 140 127 121 128 128 138 158 164 150 126 114 94 76 55 42 30 20 12 4 0 356 353 351 348 345 343 342 341 341 340 337 336
22 31 108 137 153 206 158 145 139 44 283 173 152 147 149 157 177 162 180 170 157 151 131 102 79 48 22 10 1 355 351 350 348 348 346 343 341 339 338 338 337 337 335 334
51 22 142 185 216 297 141 147 140 110 214 152 156 159 160 171 145 158 171 174 185 182 161 144 34 339 337 341 344 345 345 346 345 342 340 340 339 337 337 335 334 332 330 329
164 139 189 66 74 274 145 113 165 155 139 153 160 159 168 168 151 156 166 180 180 186 201 239 294 314 325 335 338 338 336 336 335 334 335 335 335 336 335 334 333 332 331 329
272 179 182 172 211 128 165 138 165 154 156 161 163 165 174 165 167 168 171 183 202 235 267 280 290 300 313 321 322 322 325 327 329 331 333 333 333 333 333 333 332 331 331 330
256 171 169 53 285 192 184 176 169 161 165 167 173 170 172 168 173 175 185 203 231 256 272 282 283 290 300 309 312 317 323 326 328 330 331 332 332 332 332 331 331 330 331 329
160 145 174 271 164 165 215 205 182 170 176 175 175 174 172 175 179 190 200 230 265 281 287 289 291 297 305 310 315 321 322 324 327 329 330 331 330 329 329 328 328 328 327 327
187 182 171 212 200 176 203 202 191 190 188 185 182 176 182 189 198 207 228 257 279 290 295 294 297 302 307 310 315 318 320 324 326 327 328 329 328 328 327 325 323 323 323 323